Worland, WY

5:26 PM MDT on September 29, 2016 (GMT -0600)
Worland Municipal

Weather History for KWRL - June, 2013

Change the Weather History Date:

Wednesday, June 19, 2013

  Actual Average Record
Temperature  
Mean Temperature 74 °F 66 °F  
Max Temperature 96 °F 82 °F 101 °F (1989)
Min Temperature 51 °F 50 °F 40 °F (1979)
Degree Days  
Heating Degree Days 0 2  
Month to date heating degree days 40 76  
Since 1 June heating degree days 40 76  
Since 1 July heating degree days 7461 7852  
Cooling Degree Days 9 3  
Month to date cooling degree days 54 37  
Year to date cooling degree days 71 49  
Since 1 June cooling degree days 54 37  
Growing Degree Days 24 (Base 50)    
Moisture  
Dew Point 31 °F    
Average Humidity 35    
Maximum Humidity 63    
Minimum Humidity 6    
Precipitation  
Precipitation 0.00 in 0.04 in 0.52 in (1972)
Month to date precipitation 0.07 0.85  
Year to date precipitation 2.76 4.01  
Sea Level Pressure  
Sea Level Pressure 29.50 in    
Wind  
Wind Speed 11 mph (SW)    
Max Wind Speed 30 mph    
Max Gust Speed 37 mph    
Visibility 10 miles    
Events      
T = Trace of Precipitation, MM = Missing Value Source: NWS Daily Summary

Daily Weather History Graph

Daily Weather History Graph

Search for Another Location

Airport or City:

Trip Planner

Search our weather history database for the weather conditions in past years. The results will help you decide how hot, cold, wet, or windy it might be!

Date:

Astronomy

Jun. 19, 2013 Rise Set
Actual Time 5:28 AM MDT 8:57 PM MDT
Civil Twilight 4:52 AM MDT 9:34 PM MDT
Nautical Twilight 4:04 AM MDT 10:21 PM MDT
Astronomical Twilight 3:03 AM MDT 11:22 PM MDT
Moon 4:48 PM MDT (6/19) 2:22 AM MDT (6/19)
Length of Visible Light 16h 41m
Length of Day
15h 28m
Waxing Gibbous, 81% of the Moon is Illuminated
Jun 19
Waxing Gibbous
Jun 23
Full
Jun 29
Last Quarter
Jul 8
New
Jul 15
First Quarter

Hourly Weather History & Observations

Time (MDT) Temp. Dew Point Humidity Pressure Visibility Wind Dir Wind Speed Gust Speed Precip Events Conditions
12:53 AM 64.9 °F 41.0 °F 42% 29.65 in 10.0 mi East 9.2 mph - N/A   Clear
1:53 AM 63.0 °F 42.1 °F 46% 29.62 in 10.0 mi ESE 9.2 mph - N/A   Clear
2:53 AM 59.0 °F 43.0 °F 55% 29.63 in 10.0 mi SSW 5.8 mph - N/A   Clear
3:53 AM 57.0 °F 41.0 °F 55% 29.61 in 10.0 mi South 4.6 mph - N/A   Clear
4:53 AM 52.0 °F 39.9 °F 63% 29.61 in 10.0 mi East 6.9 mph - N/A   Clear
5:53 AM 55.0 °F 41.0 °F 59% 29.60 in 10.0 mi Calm Calm - N/A   Clear
6:53 AM 59.0 °F 43.0 °F 55% 29.58 in 10.0 mi SSW 6.9 mph - N/A   Clear
7:53 AM 63.0 °F 44.1 °F 50% 29.57 in 10.0 mi Calm Calm - N/A   Clear
8:53 AM 72.0 °F 46.9 °F 41% 29.54 in 10.0 mi WSW 4.6 mph - N/A   Clear
9:53 AM 78.1 °F 42.1 °F 28% 29.51 in 10.0 mi SW 6.9 mph - N/A   Clear
10:53 AM 82.0 °F 41.0 °F 23% 29.47 in 10.0 mi SW 5.8 mph - N/A   Clear
11:53 AM 86.0 °F 35.1 °F 16% 29.45 in 10.0 mi West 5.8 mph - N/A   Clear
12:53 PM 91.9 °F 24.1 °F 9% 29.42 in 10.0 mi SSW 16.1 mph 25.3 mph N/A   Clear
1:53 PM 93.0 °F 24.1 °F 8% 29.40 in 10.0 mi SSW 18.4 mph 23.0 mph N/A   Clear
2:53 PM 95.0 °F 19.9 °F 7% 29.38 in 10.0 mi SSW 13.8 mph 21.9 mph N/A   Clear
3:53 PM 95.0 °F 21.0 °F 7% 29.36 in 10.0 mi SSW 11.5 mph 26.5 mph N/A   Clear
4:53 PM 93.9 °F 19.0 °F 7% 29.35 in 10.0 mi South 9.2 mph 20.7 mph N/A   Clear
5:53 PM 95.0 °F 19.0 °F 6% 29.34 in 10.0 mi SW 15.0 mph 26.5 mph N/A   Clear
6:53 PM 89.1 °F 23.0 °F 9% 29.39 in 10.0 mi SW 26.5 mph 34.5 mph N/A   Clear
7:53 PM 84.0 °F 23.0 °F 11% 29.44 in 10.0 mi WSW 26.5 mph 36.8 mph N/A   Clear
8:53 PM 80.1 °F 14.0 °F 8% 29.48 in 10.0 mi SW 17.3 mph 26.5 mph N/A   Clear
9:53 PM 75.9 °F 21.9 °F 13% 29.54 in 10.0 mi WSW 13.8 mph 28.8 mph N/A   Clear
10:53 PM 73.9 °F 17.1 °F 12% 29.56 in 10.0 mi WSW 9.2 mph - N/A   Clear
11:53 PM 70.0 °F 19.9 °F 15% 29.60 in 10.0 mi WSW 6.9 mph - N/A   Clear